Satellite-Ground Cal/Val Region Overpasses Predictions

Prediction of Satellite NPP Overpassing Cal/Val Region: PacNW

Region Location: (Latitude: 10.00, Longitude: 139.50) to (Latitude: 22.70, Longitude: 165.60).

Table of predicted overpasses for the next 14.0 days since TLE Epoch: 9/9/2023
Interval Starting Time Starting Location Ending Time Ending Location
1 09/09/2023 02:34:08 ( 10.03, 161.44) 09/09/2023 02:37:43 ( 22.65, 158.44)
2 09/09/2023 15:06:01 ( 22.66, 158.65) 09/09/2023 15:09:36 ( 10.04, 155.66)
3 09/10/2023 02:15:50 ( 12.63, 165.60) 09/10/2023 02:18:41 ( 22.67, 163.19)
4 09/10/2023 03:56:35 ( 10.05, 140.81) 09/10/2023 03:58:11 ( 15.69, 139.51)
5 09/10/2023 14:46:58 ( 22.65, 163.41) 09/10/2023 14:50:33 ( 10.02, 160.41)
6 09/11/2023 03:37:32 ( 10.01, 145.58) 09/11/2023 03:41:08 ( 22.69, 142.57)
7 09/11/2023 14:30:59 ( 11.89, 165.60) 09/11/2023 14:31:31 ( 10.01, 165.17)
8 09/11/2023 16:09:25 ( 22.68, 142.80) 09/11/2023 16:13:00 ( 10.06, 139.80)
9 09/12/2023 03:18:30 ( 10.03, 150.34) 09/12/2023 03:22:05 ( 22.65, 147.34)
10 09/12/2023 15:50:22 ( 22.66, 147.56) 09/12/2023 15:53:57 ( 10.04, 144.56)
11 09/13/2023 02:59:27 ( 10.04, 155.09) 09/13/2023 03:03:02 ( 22.67, 152.10)
12 09/13/2023 15:31:20 ( 22.64, 152.31) 09/13/2023 15:34:55 ( 10.02, 149.31)
13 09/14/2023 02:40:24 ( 10.00, 159.86) 09/14/2023 02:44:00 ( 22.69, 156.85)
14 09/14/2023 15:12:16 ( 22.68, 157.08) 09/14/2023 15:15:52 ( 10.00, 154.07)
15 09/15/2023 02:21:21 ( 10.03, 164.62) 09/15/2023 02:24:56 ( 22.65, 161.62)
16 09/15/2023 14:53:14 ( 22.66, 161.83) 09/15/2023 14:56:49 ( 10.04, 158.84)
17 09/16/2023 03:43:49 ( 10.06, 143.99) 09/16/2023 03:47:24 ( 22.68, 140.99)
18 09/16/2023 14:35:20 ( 18.59, 165.60) 09/16/2023 14:37:46 ( 10.02, 163.59)
19 09/16/2023 16:15:40 ( 22.69, 141.23) 09/16/2023 16:17:41 ( 15.59, 139.51)
20 09/17/2023 03:24:45 ( 10.02, 148.76) 09/17/2023 03:28:20 ( 22.65, 145.76)
21 09/17/2023 15:56:38 ( 22.67, 145.98) 09/17/2023 16:00:13 ( 10.05, 142.98)
22 09/18/2023 03:05:43 ( 10.05, 153.51) 09/18/2023 03:09:18 ( 22.67, 150.52)
23 09/18/2023 15:37:36 ( 22.64, 150.73) 09/18/2023 15:41:11 ( 10.02, 147.74)
24 09/19/2023 02:46:39 ( 10.01, 158.28) 09/19/2023 02:50:15 ( 22.70, 155.27)
25 09/19/2023 15:18:32 ( 22.68, 155.50) 09/19/2023 15:22:07 ( 10.06, 152.50)
26 09/20/2023 02:27:37 ( 10.04, 163.03) 09/20/2023 02:31:12 ( 22.67, 160.04)
27 09/20/2023 14:59:30 ( 22.65, 160.25) 09/20/2023 15:03:05 ( 10.03, 157.26)
28 09/21/2023 02:11:13 ( 19.41, 165.60) 09/21/2023 02:12:09 ( 22.69, 164.79)
29 09/21/2023 03:50:03 ( 10.02, 142.42) 09/21/2023 03:53:33 ( 22.35, 139.50)
30 09/21/2023 14:40:26 ( 22.68, 165.02) 09/21/2023 14:44:02 ( 10.00, 162.01)
31 09/21/2023 16:21:56 ( 22.67, 139.64) 09/21/2023 16:22:05 ( 22.14, 139.51)
32 09/22/2023 03:31:01 ( 10.05, 147.18) 09/22/2023 03:34:36 ( 22.68, 144.18)
